Home   Weather   Auburn   Past weeks
Flag for USA

Past Weather in Auburn, Alabama, USA — Yesterday and Last 2 Weeks

Now
32 °F

Clear.


Feels Like: 25 °F
Forecast: 52 / 28 °F
Wind: 8 mph from North

Location: Opelika Airport

Current Time: Jan 21, 2020 at 8:24:36 pm

Latest Report: Jan 21, 2020 at 7:56 pm


Visibility: 10 mi

Pressure: 30.50 "Hg

Humidity: 61%

Dew Point: 20 °F

Location of AuburnLocation

Past Weather in Auburn — Graph

°F

Auburn Temperature Yesterday

Maximum temperature yesterday: 42 °F (at 2:56 pm)
Minimum temperature yesterday: 26 °F (at 11:56 pm)
Average temperature yesterday: 33 °F

High & Low Weather Summary for the Past Weeks

 TemperatureHumidityPressure
High72 °F (Jan 11, 2:56 pm)100% (Jan 11, 9:22 am)30.60 "Hg (Jan 11, 9:22 am)
Low22 °F (Jan 21, 3:56 am)21% (Jan 8, 2:56 pm)29.95 "Hg (Jan 11, 2:05 pm)
Average56 °F77%30.34 "Hg
* Reported Jan 6 6:56 pm — Jan 21 6:56 pm, Auburn. Weather by CustomWeather, © 2020

Note: Actual official high and low records may vary slightly from our data, if they occured in-between our weather recording intervals... More about our weather records

Auburn Weather History for the Previous 24 Hours

Scroll right to see more
 ConditionsComfort  
Time TempWeatherWind HumidityBarometerVisibility
6:56 pm
Tue, Jan 21
33 °FClear.6 mph52%30.49 "Hg10 mi
5:56 pm36 °FClear.3 mph46%30.47 "Hg10 mi
4:56 pm39 °FSunny.9 mph41%30.45 "Hg10 mi
3:56 pm42 °FSunny.8 mph38%30.45 "Hg10 mi
2:56 pm43 °FSunny.12 mph37%30.45 "Hg10 mi
1:56 pm41 °FSunny.12 mph39%30.46 "Hg10 mi
12:56 pm41 °FSunny.7 mph41%30.49 "Hg10 mi
11:56 am39 °FSunny.7 mph43%30.51 "Hg10 mi
10:56 am36 °FSunny.9 mph50%30.54 "Hg10 mi
9:56 am33 °FScattered clouds.8 mph56%30.56 "Hg10 mi
8:56 am28 °FPartly sunny.12 mph69%30.55 "Hg10 mi
7:56 am24 °FSunny.13 mph75%30.55 "Hg10 mi
6:56 am22 °FPartly sunny.10 mph78%30.53 "Hg10 mi
5:56 am22 °FPassing clouds.13 mph78%30.49 "Hg10 mi
4:56 am23 °FOvercast.12 mph74%30.47 "Hg10 mi
3:56 am22 °FClear.14 mph78%30.45 "Hg10 mi
2:56 am23 °FClear.10 mph74%30.47 "Hg10 mi
1:56 am24 °FClear.10 mph75%30.46 "Hg10 mi
12:56 am25 °FClear.13 mph75%30.46 "Hg10 mi
11:56 pm
Mon, Jan 20
26 °FClear.13 mph71%30.45 "Hg10 mi
10:56 pm27 °FClear.10 mph75%30.46 "Hg10 mi
9:56 pm28 °FClear.9 mph72%30.47 "Hg10 mi
8:56 pm29 °FClear.9 mph69%30.48 "Hg10 mi
Weather by CustomWeather, © 2020

See weather overview

Advertising